Temp
13 13 13 14 14 14 14 14 14 14 14 14 14 14 14 14 14 14 14 14 14 14 14 14 14 14 13 13 13 13 13 13 13 13 12 12 12 12 12 13 12 12 13 13 13
13 13 13 13 14 14 14 14 14 14 14 14 14 14 14 14 14 14 14 14 14 14 14 14 14 13 14 14 14 14 13 13 14 14 14 13 12 13 12 12 13 12 13 13 13
13 13 13 13 13 14 14 14 14 14 14 14 14 14 14 14 14 14 14 14 14 14 15 14 13 13 14 14 14 14 14 15 15 14 14 14 12 13 12 13 13 12 14 14 14
13 13 13 13 13 14 14 14 14 14 14 14 14 14 14 14 14 14 14 14 14 14 13 13 13 13 14 14 15 15 15 15 15 15 14 14 13 13 13 13 13 12 13 14 14
13 13 13 13 13 14 14 14 14 14 14 14 14 14 14 14 14 14 14 14 15 14 14 13 13 15 15 15 15 15 15 15 15 15 15 14 14 14 14 13 13 12 13 13 13
13 13 13 13 13 13 14 14 14 14 14 14 14 14 14 14 14 14 15 15 15 14 14 14 15 15 15 15 15 15 15 15 15 15 15 14 14 13 14 13 13 13 12 13 13
13 13 13 13 13 13 14 14 14 14 14 14 14 14 15 14 15 15 15 14 14 14 14 15 15 14 15 15 15 16 15 15 15 15 15 14 14 14 14 14 13 13 13 12 12
13 13 13 13 13 13 14 14 14 14 14 14 14 14 14 15 15 15 15 14 14 15 14 14 15 15 15 15 15 16 16 15 15 15 15 14 15 14 14 14 13 13 13 13 13
13 13 13 13 13 13 13 14 14 14 14 14 14 14 14 15 15 15 15 14 14 14 14 14 15 15 14 15 15 16 16 16 15 15 15 15 15 15 14 14 13 13 13 13 13
13 13 13 13 13 14 13 13 14 14 14 14 14 14 14 15 15 15 14 15 14 14 14 14 14 14 14 14 15 15 15 15 15 15 15 15 15 15 15 15 14 13 13 13 13
13 13 13 13 13 13 13 13 13 13 14 14 14 14 14 15 15 15 15 14 14 15 15 14 14 15 15 15 15 15 15 14 14 15 14 14 15 16 16 15 14 14 14 14 14
13 13 13 13 13 13 13 13 13 13 14 15 15 14 14 14 15 15 14 14 15 15 15 15 15 16 16 15 15 16 15 14 14 15 14 14 14 15 15 16 15 14 14 14 14
14 14 14 14 13 13 12 12 13 14 14 14 15 15 14 14 15 15 15 15 15 15 15 15 17 16 16 16 16 17 16 15 14 15 15 15 15 15 15 15 15 15 14 14 15
14 14 14 14 13 12 12 12 13 14 14 15 15 15 14 14 15 15 15 15 15 15 15 15 16 16 17 18 17 17 17 16 16 15 15 15 16 16 16 17 16 15 15 15 15
14 14 14 14 14 13 13 12 13 13 12 16 15 15 15 15 15 15 15 15 15 15 15 16 17 17 17 18 17 18 18 18 17 16 16 16 15 17 17 17 16 17 16 16 16
14 14 14 14 14 14 13 13 13 13 13 15 15 16 15 15 15 15 15 15 15 15 16 16 16 17 17 17 17 18 18 18 17 16 14 17 17 18 18 19 18 17 17 17 16
14 14 14 14 14 14 13 12 13 13 15 16 16 16 16 16 15 15 15 16 16 16 16 16 17 17 17 18 18 18 18 17 16 13 15 17 15 19 19 19 18 17 17 18 17
14 14 14 14 14 14 13 13 13 15 15 15 16 16 16 16 16 16 16 16 16 15 15 16 17 18 18 18 18 18 18 17 15 12 15 17 16 19 19 19 18 17 17 17 17
14 14 14 14 14 14 13 13 15 15 15 15 16 16 15 16 16 16 15 16 16 16 16 16 17 18 18 19 18 18 18 18 18 16 14 17 18 19 19 18 18 17 17 18 18
13 14 14 14 14 13 13 14 15 15 15 15 16 16 16 16 16 16 16 16 16 16 17 17 17 18 19 19 18 18 18 18 18 15 16 17 18 19 18 18 18 18 18 18 18
13 13 13 14 13 12 12 13 15 15 14 15 15 15 15 16 16 16 16 17 17 17 17 17 17 18 18 18 18 18 18 18 18 18 13 12 17 19 18 18 17 18 18 18 18
13 12 12 12 12 12 13 14 14 15 14 14 14 15 15 15 16 16 16 16 17 17 17 18 17 17 18 18 17 17 16 17 17 17 17 17 17 18 18 17 18 18 17 18 19
11 11 11 10 11 11 11 12 13 14 14 14 14 15 15 15 16 16 16 15 16 18 17 18 16 17 18 17 17 17 16 16 17 17 18 16 16 16 17 17 17 17 17 18 18
10 10 11 11 11 10 10 11 12 13 14 14 14 14 15 15 15 15 15 16 15 16 16 16 17 17 18 17 16 16 16 17 16 16 16 17 16 15 16 15 16 16 17 17 17
10 10 10 10 10 10 10 11 12 13 13 14 14 14 14 15 15 15 15 15 16 15 16 16 16 16 16 15 15 15 15 15 16 16 16 17 17 16 15 15 15 16 16 16 16
10 9 10 9 9 9 10 11 11 12 13 13 13 14 14 14 14 14 14 15 15 15 15 16 16 16 15 15 15 15 15 15 15 16 16 16 15 15 15 15 15 16 16 16 16
9 9 9 9 9 10 10 11 11 12 12 12 12 13 13 13 13 13 13 13 14 13 14 14 14 14 14 14 14 14 14 14 15 15 15 15 16 15 14 14 14 13 13 13 14
Height
3157 3157 3158 3159 3160 3162 3164 3167 3169 3169 3170 3171 3171 3171 3173 3172 3172 3173 3174 3176 3175 3174 3175 3173 3174 3174 3172 3171 3171 3172 3172 3171 3172 3173 3173 3174 3174 3176 3177 3179 3178 3179 3181 3183 3183
3157 3157 3158 3158 3160 3161 3164 3166 3168 3170 3171 3171 3172 3171 3173 3172 3173 3175 3176 3176 3176 3177 3176 3176 3177 3173 3173 3173 3173 3173 3172 3172 3173 3173 3173 3174 3175 3175 3177 3178 3179 3180 3181 3183 3184
3157 3157 3157 3158 3159 3160 3162 3165 3167 3170 3171 3171 3172 3172 3174 3173 3175 3176 3176 3177 3177 3176 3177 3178 3179 3179 3176 3175 3175 3174 3173 3173 3172 3174 3176 3176 3176 3177 3178 3179 3181 3181 3183 3184 3185
3157 3157 3158 3158 3158 3159 3161 3164 3166 3169 3171 3172 3172 3173 3174 3174 3177 3176 3178 3179 3178 3178 3178 3179 3181 3178 3177 3178 3176 3177 3175 3174 3174 3175 3176 3176 3178 3179 3180 3183 3183 3183 3182 3185 3185
3157 3157 3157 3157 3158 3159 3160 3162 3165 3167 3170 3172 3173 3173 3174 3176 3176 3177 3178 3179 3180 3181 3182 3182 3182 3180 3178 3178 3178 3177 3176 3176 3177 3177 3178 3178 3178 3179 3181 3183 3184 3186 3186 3186 3187
3156 3157 3157 3157 3157 3158 3159 3161 3163 3166 3169 3171 3172 3173 3175 3177 3176 3177 3178 3180 3181 3182 3183 3183 3181 3180 3178 3179 3179 3179 3178 3177 3179 3179 3179 3179 3179 3180 3181 3183 3185 3186 3187 3187 3187
3155 3155 3156 3156 3157 3157 3159 3160 3162 3164 3167 3170 3172 3173 3174 3176 3176 3176 3178 3179 3181 3183 3183 3182 3181 3180 3179 3179 3181 3180 3180 3179 3182 3182 3182 3182 3182 3180 3182 3184 3185 3186 3186 3187 3189
3154 3154 3155 3156 3156 3157 3158 3159 3160 3162 3164 3167 3170 3172 3173 3174 3175 3177 3178 3179 3181 3182 3182 3181 3180 3179 3180 3180 3180 3181 3182 3182 3183 3184 3184 3184 3181 3181 3183 3184 3185 3185 3185 3186 3188
3154 3153 3154 3155 3156 3157 3157 3159 3160 3161 3163 3165 3168 3170 3172 3173 3175 3175 3177 3179 3181 3182 3182 3179 3179 3180 3180 3181 3181 3182 3182 3183 3184 3184 3183 3183 3181 3181 3182 3183 3183 3184 3185 3185 3187
3154 3153 3153 3154 3155 3156 3157 3158 3159 3160 3161 3163 3165 3170 3170 3172 3173 3175 3176 3178 3180 3181 3182 3180 3179 3179 3179 3180 3182 3183 3182 3183 3183 3184 3183 3182 3181 3181 3181 3181 3181 3182 3183 3183 3184
3154 3153 3153 3153 3154 3156 3157 3158 3161 3162 3161 3161 3162 3165 3167 3169 3170 3173 3175 3177 3178 3179 3180 3179 3179 3177 3179 3180 3182 3184 3182 3184 3183 3182 3181 3182 3180 3179 3179 3179 3180 3180 3182 3182 3183
3153 3152 3152 3152 3153 3155 3156 3157 3159 3160 3160 3160 3161 3162 3163 3165 3168 3170 3172 3175 3176 3177 3178 3179 3176 3177 3178 3178 3179 3181 3182 3183 3180 3181 3182 3180 3178 3178 3178 3177 3178 3179 3181 3182 3182
3151 3151 3151 3151 3152 3155 3156 3156 3157 3158 3157 3158 3160 3162 3164 3165 3167 3169 3171 3173 3175 3177 3177 3177 3176 3176 3177 3174 3175 3176 3177 3182 3179 3180 3178 3178 3177 3175 3174 3175 3176 3177 3180 3181 3182
3149 3150 3150 3150 3154 3154 3153 3155 3156 3157 3156 3156 3156 3160 3161 3163 3165 3167 3169 3173 3173 3175 3177 3176 3174 3175 3174 3172 3173 3173 3172 3177 3176 3176 3177 3176 3174 3170 3171 3171 3173 3175 3177 3178 3181
3148 3148 3149 3150 3150 3152 3154 3155 3156 3158 3157 3156 3155 3157 3159 3162 3163 3164 3168 3169 3171 3173 3176 3174 3173 3173 3171 3172 3173 3174 3172 3172 3174 3174 3175 3174 3174 3168 3168 3167 3169 3172 3174 3176 3179
3145 3146 3147 3148 3149 3151 3152 3154 3157 3160 3155 3155 3155 3155 3157 3160 3162 3164 3166 3169 3170 3171 3171 3169 3171 3171 3170 3171 3173 3173 3173 3173 3172 3173 3176 3168 3170 3162 3163 3161 3166 3170 3172 3175 3177
3143 3143 3145 3146 3148 3150 3152 3154 3158 3156 3155 3156 3153 3154 3156 3158 3161 3162 3164 3166 3167 3168 3169 3169 3168 3168 3169 3170 3171 3172 3172 3171 3172 3173 3169 3167 3167 3161 3161 3161 3165 3168 3171 3174 3176
3141 3141 3142 3144 3146 3148 3151 3155 3155 3152 3152 3151 3151 3153 3155 3158 3160 3161 3161 3162 3164 3166 3168 3169 3167 3167 3167 3167 3169 3169 3171 3171 3174 3173 3166 3165 3162 3160 3162 3164 3165 3166 3168 3171 3175
3137 3138 3139 3141 3144 3146 3149 3151 3150 3151 3152 3150 3150 3153 3155 3157 3159 3160 3160 3159 3161 3163 3167 3165 3165 3164 3160 3160 3166 3167 3168 3170 3168 3165 3164 3161 3160 3159 3161 3164 3164 3166 3168 3170 3173
3134 3134 3136 3137 3141 3144 3146 3147 3148 3150 3150 3151 3151 3153 3154 3155 3157 3158 3159 3156 3158 3160 3163 3164 3164 3161 3161 3162 3164 3166 3168 3167 3166 3168 3166 3160 3159 3159 3160 3161 3164 3165 3167 3171 3172
3131 3132 3133 3134 3138 3141 3141 3143 3145 3148 3149 3151 3150 3152 3152 3153 3154 3155 3154 3155 3156 3158 3161 3162 3164 3163 3162 3163 3164 3165 3165 3165 3165 3165 3165 3167 3160 3159 3160 3163 3163 3165 3167 3170 3171
3128 3130 3131 3132 3136 3137 3139 3139 3142 3144 3147 3147 3148 3149 3149 3150 3151 3151 3150 3150 3151 3152 3156 3158 3160 3161 3163 3163 3162 3162 3162 3162 3163 3163 3162 3161 3159 3155 3158 3160 3161 3164 3166 3167 3170
3126 3128 3130 3131 3133 3136 3137 3136 3136 3138 3142 3143 3145 3147 3147 3148 3149 3149 3149 3148 3147 3147 3149 3153 3155 3158 3160 3163 3161 3160 3161 3160 3159 3159 3159 3159 3158 3155 3156 3159 3161 3163 3165 3165 3168
3125 3126 3127 3128 3130 3131 3131 3132 3133 3135 3136 3138 3140 3141 3144 3145 3145 3146 3147 3147 3147 3146 3147 3148 3151 3153 3155 3156 3158 3158 3159 3159 3160 3159 3157 3157 3155 3157 3159 3161 3163 3164 3164 3164 3166
3121 3122 3123 3125 3126 3127 3128 3129 3130 3131 3132 3132 3134 3137 3139 3140 3142 3143 3145 3144 3145 3145 3146 3147 3148 3150 3151 3152 3154 3155 3156 3156 3158 3158 3158 3156 3155 3156 3160 3163 3165 3165 3165 3165 3167
3118 3120 3121 3122 3123 3125 3125 3126 3127 3128 3129 3129 3132 3133 3134 3136 3137 3139 3140 3142 3142 3142 3143 3144 3145 3147 3148 3150 3151 3152 3153 3154 3155 3156 3156 3155 3155 3157 3160 3162 3163 3163 3164 3164 3165
3114 3116 3119 3120 3121 3122 3122 3123 3124 3125 3126 3127 3129 3130 3132 3134 3133 3135 3136 3138 3139 3140 3140 3141 3142 3144 3145 3147 3149 3151 3150 3151 3152 3152 3153 3154 3156 3157 3158 3160 3161 3160 3160 3160 3160
Wind_Speed
6 7 9 12 14 15 14 13 10 9 7 5 4 3 5 5 6 6 3 1 4 5 9 15 12 15 11 14 6 6 5 6 11 13 14 18 14 10 6 2 7 5 7 14 18
5 5 7 10 13 14 15 14 12 10 8 6 5 4 7 8 8 7 2 1 4 6 13 12 12 16 15 13 16 6 4 4 8 11 13 13 14 8 10 9 7 2 9 11 13
3 4 5 8 10 14 15 16 14 12 9 7 5 6 10 9 7 6 9 12 9 12 6 7 13 13 10 8 10 7 5 7 8 12 9 7 14 4 6 6 3 7 6 9 12
2 3 5 6 9 11 14 17 16 14 11 9 6 7 10 11 4 5 12 14 12 8 4 4 9 13 13 4 2 2 3 13 7 8 7 5 8 7 4 6 7 4 5 4 9
1 2 3 5 8 10 11 15 17 16 14 12 9 9 10 8 7 8 11 13 15 12 8 5 7 14 14 9 5 4 5 15 6 6 6 4 1 3 4 2 2 3 4 4 6
1 2 4 4 6 8 10 12 16 17 16 14 12 10 10 6 6 8 9 12 18 11 13 11 9 12 14 6 3 4 9 16 8 5 5 2 6 7 5 5 5 4 5 6 7
1 3 4 5 6 8 9 11 13 17 17 16 14 12 9 7 7 7 11 13 17 13 11 9 5 7 8 6 1 2 3 17 12 11 10 8 15 14 10 8 10 6 8 7 11
3 2 5 6 6 7 9 9 11 13 18 18 16 14 10 10 7 7 9 13 16 10 7 4 3 5 7 2 7 3 8 14 16 16 17 16 13 12 13 13 9 7 10 9 13
5 1 4 7 7 7 7 8 8 10 12 17 18 16 14 10 7 9 11 12 13 15 6 2 2 3 6 7 4 5 5 10 14 10 19 21 16 12 13 12 11 11 10 11 15
4 3 3 7 8 7 7 8 9 9 10 12 15 14 10 13 9 8 11 16 13 18 12 7 9 9 11 14 6 8 5 6 9 3 20 24 20 11 5 5 10 13 13 10 13
3 3 1 7 8 10 9 9 8 8 10 13 13 11 14 14 16 13 13 17 18 20 13 7 12 13 8 9 13 5 6 9 22 10 14 22 23 15 9 7 13 14 10 7 8
3 2 1 6 9 11 12 11 8 6 7 12 17 20 17 17 18 16 14 18 20 20 12 10 15 6 15 17 18 16 15 16 12 8 14 13 23 15 16 13 7 8 8 2 3
4 2 1 4 10 13 15 13 10 7 8 12 17 20 16 15 16 19 14 17 18 17 13 13 3 10 16 20 18 16 21 18 4 10 19 17 18 22 20 20 20 16 13 11 3
5 4 3 4 9 16 18 12 9 6 7 4 16 22 20 16 16 15 14 13 14 17 15 12 12 7 16 15 14 11 12 18 19 16 13 13 7 16 25 21 21 18 15 12 10
5 7 6 5 10 17 16 14 11 7 3 6 10 15 19 17 8 20 18 15 12 13 10 18 12 14 6 7 9 6 4 1 12 21 20 15 9 18 17 23 24 15 12 12 10
6 8 8 8 11 14 17 15 10 4 4 6 11 10 18 17 10 19 16 12 9 12 17 25 19 15 8 8 7 4 2 6 11 18 10 26 22 16 20 17 12 16 15 12 11
7 8 11 12 14 13 11 12 6 5 1 3 10 11 18 19 15 16 20 18 13 12 17 25 23 18 16 13 9 7 5 3 2 2 6 0 11 18 4 11 6 10 13 14 12
8 9 13 16 15 16 14 14 7 2 8 6 13 12 16 19 17 16 20 22 18 18 16 9 8 15 15 18 16 12 8 2 3 2 6 11 9 6 8 8 9 8 7 13 15
8 10 13 18 18 17 19 17 6 6 8 4 10 12 16 18 11 16 20 21 17 15 14 10 7 9 10 12 17 10 12 8 5 8 4 2 3 10 16 17 17 12 12 15 13
8 10 12 17 20 20 22 22 15 4 7 5 6 9 10 12 16 16 17 12 22 21 14 6 8 7 5 8 10 13 5 7 2 0 3 3 3 5 21 19 20 20 20 17 13
9 9 11 16 20 23 27 26 22 12 6 3 2 5 5 6 5 9 18 21 14 14 23 20 14 3 5 5 5 11 13 11 6 5 5 1 4 12 25 19 18 19 16 15 13
10 10 11 12 19 24 27 27 22 23 14 10 6 5 7 6 7 4 2 11 17 26 24 22 9 16 9 4 3 8 9 3 4 3 6 4 4 12 22 27 24 20 18 10 2
13 14 15 11 9 7 15 20 23 24 17 14 10 12 5 6 7 9 9 2 4 18 22 26 22 16 9 9 7 5 8 10 7 6 10 3 2 12 23 26 23 22 19 13 11
18 16 19 17 13 9 9 15 13 13 15 16 17 16 16 13 9 10 7 6 1 6 13 18 15 21 16 7 6 2 6 8 6 3 4 7 12 21 24 23 21 20 17 16 15
23 20 21 18 15 13 12 11 6 7 10 17 20 20 18 16 16 14 13 11 10 9 10 14 12 10 8 6 4 5 7 9 13 9 5 10 16 26 24 21 18 15 14 13 14
18 20 22 13 16 16 13 11 10 10 12 16 20 21 22 19 19 19 17 17 14 15 14 15 11 13 13 12 11 12 7 6 9 7 6 9 25 25 23 21 18 18 19 19 18
13 19 20 18 16 13 14 10 7 11 10 12 12 15 15 16 17 17 15 14 14 13 14 15 14 13 10 10 9 7 6 8 9 11 10 21 21 24 24 26 25 23 20 20 20
Wind_Direction
125 146 163 175 181 186 187 182 176 171 164 153 133 117 119 163 164 165 157 84 69 70 75 27 28 59 52 36 33 39 137 193 189 172 170 174 181 154 159 50 119 87 110 159 155
117 139 156 171 181 187 188 188 185 179 175 162 134 119 120 141 142 138 143 157 117 83 65 37 48 36 30 42 29 44 341 292 207 172 172 180 189 168 171 184 147 114 157 168 153
122 140 158 167 179 188 191 191 189 187 181 173 147 132 127 142 137 119 98 113 119 103 97 45 57 42 55 22 7 16 13 186 175 174 172 158 191 197 168 208 126 14 185 168 151
130 156 168 173 175 187 192 192 190 191 187 181 162 145 133 153 133 122 115 120 124 115 89 126 30 34 51 49 53 108 284 164 155 139 154 112 149 168 139 53 76 14 280 196 155
137 171 185 185 178 183 191 193 191 191 193 188 177 164 130 150 142 147 130 129 134 131 101 77 46 51 50 77 98 65 172 184 111 106 113 144 176 109 130 152 112 209 270 255 180
212 194 190 194 191 183 184 190 194 193 195 195 190 183 179 160 155 151 149 136 147 129 107 91 73 46 52 91 78 79 181 185 169 145 171 163 217 219 235 220 233 245 296 246 217
299 208 199 194 190 189 183 183 189 196 198 200 199 197 191 190 176 172 162 150 154 132 107 95 62 51 75 135 246 83 165 183 191 190 191 209 216 223 264 263 250 278 313 238 208
350 235 198 193 190 187 186 183 184 191 200 202 204 203 200 192 173 175 173 157 155 150 115 109 107 23 9 41 193 228 150 165 184 202 209 203 237 234 237 266 257 269 314 232 214
360 324 204 192 189 184 183 181 181 188 197 204 207 208 208 200 185 193 176 173 168 159 153 209 278 328 315 343 217 263 196 216 174 202 207 211 249 244 252 256 255 267 294 242 215
356 357 200 190 185 184 174 176 178 183 192 197 204 208 206 214 214 199 184 185 169 176 187 219 272 279 287 280 303 75 12 351 277 248 209 224 241 268 250 275 265 269 284 255 227
341 354 196 189 184 179 176 175 179 194 203 188 180 180 192 191 200 197 185 190 188 199 195 237 269 268 284 299 297 252 155 345 258 228 243 226 238 259 284 240 252 253 265 261 250
305 332 343 190 186 178 179 181 186 216 240 214 187 168 167 178 185 180 183 194 200 203 204 230 252 292 311 294 272 257 240 105 186 197 229 238 233 252 265 269 256 245 255 328 260
276 268 259 197 188 178 173 195 212 251 299 229 202 181 174 191 192 186 189 200 210 210 214 237 233 302 308 294 290 251 243 178 293 227 234 251 252 246 249 249 243 233 240 253 304
259 244 226 194 186 181 192 198 227 288 306 215 204 189 192 198 211 188 193 199 213 213 216 255 260 287 325 262 278 276 296 236 239 229 242 233 254 245 245 237 237 232 226 232 242
249 234 219 200 185 190 208 214 238 275 329 163 175 184 205 200 194 200 188 197 207 219 242 230 246 286 309 295 271 270 349 194 230 241 243 236 237 266 245 238 228 219 188 208 225
255 230 217 202 196 199 205 225 231 247 262 167 181 198 190 182 149 184 188 198 219 261 254 250 255 272 266 281 292 264 299 250 230 227 233 251 226 266 243 263 238 218 203 181 195
248 232 215 207 205 196 196 206 198 233 71 183 213 211 180 176 165 186 201 209 222 242 246 241 258 246 260 261 252 258 299 306 347 165 228 78 218 245 287 258 231 227 215 201 207
241 234 216 208 208 200 200 192 220 137 39 324 230 208 183 180 188 195 203 214 225 233 256 265 263 239 246 250 253 254 256 217 232 230 263 258 230 245 210 191 152 198 242 227 214
250 229 221 214 206 204 206 200 207 145 15 357 194 195 204 206 204 215 222 230 240 237 215 217 256 295 293 230 224 238 239 252 270 291 310 292 266 209 177 183 174 185 218 201 201
253 233 221 214 205 204 211 218 210 160 72 67 192 202 204 220 220 238 230 254 247 238 223 237 274 348 152 170 214 224 218 254 219 287 314 303 202 196 183 180 179 186 203 204 204
241 228 208 206 202 204 217 227 221 196 303 301 246 254 252 208 185 233 247 253 261 248 232 235 241 244 261 209 289 238 264 262 248 223 171 255 229 256 201 196 191 194 203 200 222
220 188 163 176 201 213 224 234 236 234 230 247 239 256 200 209 224 226 213 234 240 253 238 229 234 243 238 282 4 97 83 31 266 237 210 243 266 238 199 195 199 202 210 196 206
198 191 172 169 184 224 243 250 253 249 234 243 220 227 231 216 196 189 180 132 236 242 232 227 216 225 234 197 185 55 31 27 356 267 245 204 257 183 200 196 196 205 214 211 218
192 188 192 199 201 231 241 236 229 227 243 235 228 229 246 242 218 211 196 212 200 158 186 196 211 217 225 186 197 297 314 309 353 14 285 249 184 177 185 186 189 206 213 216 210
194 199 201 212 218 248 259 231 221 235 236 214 222 224 236 244 249 245 234 234 232 232 207 193 185 187 200 224 251 282 302 295 283 295 293 241 208 186 182 184 181 180 183 188 194
203 206 209 214 223 239 241 242 233 229 216 214 219 232 247 249 260 260 251 235 234 235 242 237 213 223 242 252 258 263 261 249 255 241 249 207 185 183 192 199 206 214 212 210 211
217 208 201 204 207 211 214 203 221 227 226 227 229 230 238 248 262 253 242 235 234 238 225 222 221 223 221 229 234 230 257 251 224 215 195 192 198 205 215 214 211 206 209 218 221